Regional Weather Roundup
Issued by NWS

Home | Current Version | Previous Version | Text Only | Print | Product List | Glossary Off
Versions: 1 2 3 4 5 6 7 8 9 10 11 12 13 14 15 16 17 18 19 20 21 22 23 24 25 26 27

000
ASUS45 KCYS 020710
RWRWY

WYOMING REGIONAL WEATHER ROUNDUP
NATIONAL WEATHER SERVICE CHEYENNE WY
100 AM MDT MON MAY 02 2016

NOTE:  "FAIR" INDICATES FEW OR NO CLOUDS BELOW 12,000 FEET
WITH NO SIGNIFICANT WEATHER AND/OR OBSTRUCTIONS TO VISIBILITY.

WYZ001-020800-
YELLOWSTONE NATIONAL PARK

CITY           SKY/WX    TMP DP  RH WIND       PRES   REMARKS
LK YELLOWSTONE   N/A     25  19  78 CALM      30.29S
W YELLOWSTONE  NOT AVBL

$$
WYZ002>013-054>058-071-098>099-020800-
NORTHERN WYOMING

CITY           SKY/WX    TMP DP  RH WIND       PRES   REMARKS
JACKSON        FAIR      34  25  69 N9        30.25R WCI  26
CODY           FAIR      37  28  70 CALM      30.24S
GREYBULL       FAIR      42  29  59 E5        30.22S
WORLAND        FAIR      40  32  73 S9        30.23S WCI  34
SHERIDAN       FAIR      35  30  82 SW5       30.21F WCI  31
BUFFALO          N/A    N/A N/A N/A MISG      30.24F
GILLETTE       FAIR      32  29  88 S6        30.23F WCI  26
HULETT         FAIR      34  30  86 S10       30.23F WCI  26
NEWCASTLE      FAIR      36  28  75 E3        30.25F

$$
WYZ014>020-022>026-101>103-020800-
CENTRAL WYOMING

CITY           SKY/WX    TMP DP  RH WIND       PRES   REMARKS
BIG PINEY      FAIR      23  16  74 NW6       30.28R WCI  16
PINEDALE       FAIR      27  19  74 NW3       30.29S
DUBOIS         NOT AVBL
LANDER         FAIR      36  23  59 S3        30.27S
RIVERTON       FAIR      36  27  69 W8        30.29S WCI  30
CASPER         FAIR      33  27  78 SW12      30.25F WCI  24
DOUGLAS        FAIR      30  26  85 CALM      30.26F

$$
WYZ021-027>030-104>119-020800-
SOUTHERN WYOMING

CITY           SKY/WX    TMP DP  RH WIND       PRES   REMARKS
EVANSTON       FAIR      32  22  66 E16       30.23S WCI  21
KEMMERER         N/A     32  25  74 E13       30.26S WCI  22
FORT BRIDGER   SUNNY     30  28  93 SE9       30.28S WCI  22
ROCK SPRINGS   FAIR      32  23  69 E14       30.25S WCI  22
DIXON          FAIR      32  20  62 NE8       30.22R WCI  25
RAWLINS        FAIR      30  19  63 E17       30.26F WCI  18
SARATOGA       FAIR      27  21  80 SE12      30.26S WCI  16
LARAMIE        FAIR      20  17  88 S5        30.28R WCI  13
CHEYENNE       FAIR      28  20  71 W12       30.27S WCI  18
TORRINGTON     FAIR      33  30  88 SW3       30.25F
PINE BLUFFS    FAIR      28  25  86 W3        30.28S

$$




USA.gov is the U.S. government's official web portal to all federal, state and local government web resources and services.